This is the latest recevied weather packets stored in our database for station/object CQ0XVC-11. If no packets are shown the sender has not sent any weather packets the latest 10 day(s).
| Time | Temp. | Humidity | Pressure | Rain* | Wind** | Luminosity | Snow |
|---|---|---|---|---|---|---|---|
| 1777957178 | 5.56° C | 75% | 1003.7 hPa | 0 mm | - | - | - |
| 1777957139 | 5.56° C | 75% | 1003.7 hPa | 0 mm | - | - | - |
| 1777956872 | 5.56° C | 78% | 1003.7 hPa | 0 mm | - | - | - |
| 1777956838 | 5.56° C | 78% | 1003.7 hPa | 0 mm | - | - | - |
| 1777956535 | 5.56° C | 75% | 1003.8 hPa | 0 mm | - | - | - |
| 1777956283 | 6.11° C | 75% | 1003.6 hPa | 0 mm | - | - | - |
| 1777956234 | 6.11° C | 75% | 1003.6 hPa | 0 mm | - | - | - |
| 1777955931 | 6.11° C | 75% | 1003.9 hPa | 0 mm | - | - | - |
| 1777955063 | 6.11° C | 77% | 1003.5 hPa | 0 mm | - | - | - |
| 1777955020 | 6.11° C | 77% | 1003.5 hPa | 0 mm | - | - | - |
| 1777954751 | 6.11° C | 77% | 1003.8 hPa | 0 mm | - | - | - |
| 1777954717 | 6.11° C | 77% | 1003.8 hPa | 0 mm | - | - | - |
| 1777954415 | 6.11° C | 76% | 1003.7 hPa | 0 mm | - | - | - |
| 1777954113 | 6.11° C | 75% | 1004 hPa | 0 mm | - | - | - |
| 1777953845 | 6.11° C | 75% | 1003.9 hPa | 0 mm | - | - | - |
| 1777953811 | 6.11° C | 75% | 1003.9 hPa | 0 mm | - | - | - |
| 1777953508 | 6.11° C | 74% | 1003.8 hPa | 0 mm | - | - | - |
| 1777953239 | 6.11° C | 77% | 1003.9 hPa | 0 mm | - | - | - |
| 1777953207 | 6.11° C | 77% | 1003.9 hPa | 0 mm | - | - | - |
| 1777952904 | 6.11° C | 75% | 1004.1 hPa | 0 mm | - | - | - |
| 1777952640 | 6.11° C | 74% | 1004.1 hPa | 0 mm | - | - | - |
| 1777952602 | 6.11° C | 74% | 1004.1 hPa | 0 mm | - | - | - |
| 1777952300 | 6.11° C | 74% | 1004 hPa | 0 mm | - | - | - |
| 1777951733 | 6.67° C | 75% | 1003.9 hPa | 0 mm | - | - | - |
| 1777951695 | 6.67° C | 75% | 1003.9 hPa | 0 mm | - | - | - |
* Rain since midnight (hover to see other rain measurements)
** Current wind speed in m/s (hover to see current wind gust speed)